Other Public Products
Issued by NWS Grand Forks, ND

Home | Current Version | Previous Version | Text Only | Print | Product List | Glossary Off
Versions: 1 2 3 4 5 6 7 8 9 10 11 12 13 14 15 16 17 18 19 20 21 22 23 24 25 26 27 28 29 30 31 32 33 34 35 36 37 38 39 40 41 42 43 44 45 46 47 48 49 50

000
FPUS83 KFGF 050031
OPUFGF
PRAIRIE TO PINES WEATHER ROUNDUP
NATIONAL WEATHER SERVICE EASTERN NORTH DAKOTA/GRAND FORKS ND
700 PM CDT WED MAY 04 2016

 **SATELLITE DATA USED TO AUGMENT SKY COVER AT AUTOMATED STATIONS**
 *****  WEATHER ACROSS EASTERN NORTH DAKOTA  *****

CITY           SKY/WX    TMP DP  RH WIND       PRES   REMARKS
GRAND FORKS    MOSUNNY   70  29  21 E5        29.95F
6HR MIN TEMP:  61; 6HR MAX TEMP:  72;

GRAND FORKS AF SUNNY     70  28  21 SE2       29.96F
GRAND CITY NWS NOT AVBL
BUXTON           N/A     72  28  20 CALM        N/A
DEVILS LAKE    MOSUNNY   71  41  33 SE7       29.94F
6HR MIN TEMP:  61; 6HR MAX TEMP:  72;

FARGO          SUNNY     70  24  17 N5        29.97F
6HR MIN TEMP:  64; 6HR MAX TEMP:  72;

WAHPETON ARPT  CLEAR     68  21  17 NW7       29.98F
$$

 *****  WEATHER ACROSS CENTRAL AND WESTERN NORTH DAKOTA  *****

CITY           SKY/WX    TMP DP  RH WIND       PRES   REMARKS
JAMESTOWN      SUNNY     73  36  25 W5        29.97F
6HR MIN TEMP:  63; 6HR MAX TEMP:  74;

BISMARCK       SUNNY     78  46  32 S9        29.95F
6HR MIN TEMP:  72; 6HR MAX TEMP:  80;

MINOT          SUNNY     86  35  16 SW10      29.88F
6HR MIN TEMP:  82; 6HR MAX TEMP:  88;

MINOT AFB      SUNNY     83  39  20 SW10      29.86F
6HR MIN TEMP:  78; 6HR MAX TEMP:  85;

GARRISON         N/A     81  39  22 S8        29.91F
6HR MIN TEMP:  75; 6HR MAX TEMP:  83;

WILLISTON      SUNNY     84  36  18 SW13G22   29.88F
6HR MIN TEMP:  80; 6HR MAX TEMP:  85;

DICKINSON      MOSUNNY   78  37  22 S14       29.94F
6HR MIN TEMP:  75; 6HR MAX TEMP:  80;

HETTINGER      SUNNY     76  41  28 S10       30.00F
6HR MIN TEMP:  73; 6HR MAX TEMP:  79;

$$

 *****  OTHER OBSERVATIONS NORTHEAST NORTH DAKOTA  *****

CITY           SKY/WX    TMP DP  RH WIND       PRES   REMARKS
WALHALLA       FAIR      75  37  25 SW7       29.90F
LANGDON        FAIR      72  34  25 S10       29.93F
CAVALIER       FAIR      73  34  23 S8        29.91F
GRAFTON        FAIR      70  34  26 S7        29.96F
CANDO          FAIR      75  37  25 S12       29.93F
FORT TOTTEN      N/A     75  34  22 SW6       29.95
ROLLA          FAIR      75  36  23 S12       29.91F
RUGBY          FAIR      79  39  24 S12G17    29.89F
 ***** THE ABOVE OBSERVATIONS ARE NON NWS ARE NOT QUALITY
        CONTROLLED AND MAY MIS-REPORT RAIN FOR SNOW...
$$

 *****  OTHER OBSERVATIONS SOUTHEAST NORTH DAKOTA *****

CITY           SKY/WX    TMP DP  RH WIND       PRES   REMARKS
COOPERSTOWN    NOT AVBL
VALLEY CITY    FAIR      68  37  32 CALM      29.99F
OAKES            N/A    N/A N/A N/A MISG        N/A
GWINNER        FAIR      72  30  21 CALM      29.99F
BUFFALO          N/A     71  25  18 CALM        N/A
WYNDMERE         N/A     70  27  19 NW6         N/A
 ***** THE ABOVE OBSERVATIONS ARE NON NWS ARE NOT QUALITY
       CONTROLLED AND MAY MIS-REPORT RAIN FOR SNOW...
$$

  *****  WEATHER ACROSS NORTHERN MINNESOTA  *****

CITY           SKY/WX    TMP DP  RH WIND       PRES   REMARKS
FLAG ISLAND    CLOUDY    48  37  66 S6        29.96S
WARROAD        MOSUNNY   55  36  47 E5        29.97F
ROSEAU         CLOUDY    64  30  27 SW7       29.96F
HALLOCK        PTSUNNY   68  21  17 S5        29.94F
THF RVR FALLS  MOSUNNY   66  27  22 W3        29.98F
6HR MIN TEMP:  59; 6HR MAX TEMP:  66;

HALSTAD        NOT AVBL
FOSSTON        SUNNY     64  23  20 NE3       29.99S
BAUDETTE       SUNNY     60  22  23 N6        29.98F
6HR MIN TEMP:  54; 6HR MAX TEMP:  61;

WASKISH        SUNNY     61  19  20 N6        29.98F
CROOKSTON      MOSUNNY   68  28  22 W6        29.97F
$$
  *****  WEATHER ACROSS CENTRAL AND WEST MINNESOTA  *****

CITY           SKY/WX    TMP DP  RH WIND       PRES   REMARKS
BEMIDJI        SUNNY     61  22  22 NE7       29.98S
PARK RAPIDS    SUNNY     66  24  20 N7        29.96F
6HR MIN TEMP:  60; 6HR MAX TEMP:  68;

WADENA         SUNNY     64  28  25 NW8       29.97S
DETROIT LAKES  SUNNY     64  28  25 N9        29.99S
MOORHEAD       SUNNY     68  27  21 NW5       29.98F
FERGUS FALLS   SUNNY     66  32  28 NW12      29.95S
ELBOW LAKE     FAIR      65  33  29 N9        29.99S
6HR MIN TEMP:  60; 6HR MAX TEMP:  66;

MORRIS MN      SUNNY     66  30  26 NW12      29.98R
STAPLES        SUNNY     64  19  17 NE8       29.97S
WHEATON        SUNNY     70  34  26 NW9       30.00S
$$
  *****  WEATHER ELSEWHERE ACROSS MINNESOTA  *****

CITY           SKY/WX    TMP DP  RH WIND       PRES   REMARKS
DULUTH         SUNNY     52  26  36 SE10      29.96S
6HR MIN TEMP:  52; 6HR MAX TEMP:  62;

INTRNTL FALLS  SUNNY     60  19  20 E3        29.97S
6HR MIN TEMP:  55; 6HR MAX TEMP:  61;

ELY            SUNNY     55  16  21 NE5       29.97R
CLOQUET        SUNNY     54  21  28 E7        29.97R
BRAINERD       SUNNY     62  22  21 N12       29.97F
6HR MIN TEMP:  58; 6HR MAX TEMP:  64;

HIBBING        SUNNY     59  17  19 N12       29.96R
6HR MIN TEMP:  55; 6HR MAX TEMP:  61;

ALEXANDRIA     SUNNY     64  26  23 N8        29.99S
6HR MIN TEMP:  62; 6HR MAX TEMP:  67;

SAINT CLOUD    SUNNY     65  22  19 N10       29.95F
6HR MIN TEMP:  62; 6HR MAX TEMP:  66;

MINNEAPOLIS    SUNNY     65  24  21 N10       29.94S
6HR MIN TEMP:  63; 6HR MAX TEMP:  66;

$$

  *****  WEATHER ACROSS SOUTH DAKOTA  *****

CITY           SKY/WX    TMP DP  RH WIND       PRES   REMARKS
SIOUX FALLS    MOSUNNY   66  32  28 N13       29.99F
6HR MIN TEMP:  63; 6HR MAX TEMP:  69;

BROOKINGS      NOT AVBL
WATERTOWN      SUNNY     67  30  25 N10       30.01S
6HR MIN TEMP:  63; 6HR MAX TEMP:  68;

HURON          SUNNY     71  36  27 NW9       30.01F
6HR MIN TEMP:  64; 6HR MAX TEMP:  72;

SISSETON         N/A     70  26  19 N8        29.98F
ABERDEEN       SUNNY     74  35  24 N6        30.00F
6HR MIN TEMP:  65; 6HR MAX TEMP:  75;

MITCHELL       SUNNY     69  36  29 NW9       30.02F
PIERRE         SUNNY     73  35  25 CALM      30.01F HAZE
6HR MIN TEMP:  66; 6HR MAX TEMP:  75;

MOBRIDGE       SUNNY     75  46  35 SE12      29.98F
RAPID CITY     SUNNY     73  41  31 S15       30.03F
6HR MIN TEMP:  73; 6HR MAX TEMP:  76;

$$

  *****  SOME WEATHER IN NEARBY STATES *****

CITY           SKY/WX    TMP DP  RH WIND       PRES   REMARKS
GLASGOW MT     SUNNY     84  37  18 S7        29.83F
6HR MIN TEMP:  80; 6HR MAX TEMP:  85; 6HR PCP: TRACE;

GREAT FALLS MT SUNNY     79  32  18 NW12      29.88F
6HR MIN TEMP:  76; 6HR MAX TEMP:  81;

CHEYENNE WY    SUNNY     69  34  27 SE8       30.16F
6HR MIN TEMP:  66; 6HR MAX TEMP:  73;

SCOTTSBLUFF NE SUNNY     75  39  27 E8        30.08F
6HR MIN TEMP:  71; 6HR MAX TEMP:  76;

OMAHA NE       SUNNY     68  39  34 N14       29.99F
6HR MIN TEMP:  65; 6HR MAX TEMP:  70;

DES MOINES IA  MOSUNNY   67  31  26 NW14G21   29.94S
6HR MIN TEMP:  63; 6HR MAX TEMP:  68;

DAVENPORT IA   MOSUNNY   61  33  35 N15       29.86S
6HR MIN TEMP:  58; 6HR MAX TEMP:  64;

CHICAGO IL     CLOUDY    45  36  70 NE15      29.83R
6HR MIN TEMP:  45; 6HR MAX TEMP:  51;

EAU CLAIRE WI  SUNNY     61  18  18 N14       29.92R
6HR MIN TEMP:  58; 6HR MAX TEMP:  64;

LA CROSSE WI   SUNNY     63  22  20 N16       29.89R
6HR MIN TEMP:  62; 6HR MAX TEMP:  66;

$$

  *****  SOME NATIONAL WEATHER *****

CITY           SKY/WX    TMP DP  RH WIND       PRES   REMARKS
LA GUARDIA NY  CLOUDY    52  49  89 NE13      29.74R
6HR MIN TEMP:  50; 6HR MAX TEMP:  52; 6HR PCP:  0.02;              C1F1C2F2C3F3C4F4C5F5C6F6C7F7C8F8C9F9CaFaCbFbCcFcCdFdCe!



USA.gov is the U.S. government's official web portal to all federal, state and local government web resources and services.